Flag for U.S.A. Weather past 2 weeks in Jersey City, New Jersey, U.S.A.

Now
34 °F

Overcast.


Feels Like: 22 °F
Forecast: 32 / 48 °F
Wind: 23 mph from Northwest

Location: Newark International Airport


UV Index: 5 (Moderate)

Visibility: 10 mi


Pressure: 30.06 "Hg

Humidity: 64%

Dew point: 23 °F

Location of Jersey CityLocation

Historic Weather in Jersey City

°F

Jersey City temperature yesterday

Maximum temperature yesterday: 66 °F (at 1:51 PM)
Minimum temperature yesterday: 34 °F (at 11:51 PM)
Average temperature yesterday: 57 °F

Past Weeks' High & Low Weather Summary

 TemperatureHumidityPressure
High83 °F (Apr 13, 2:51 PM)100% (Apr 7, 10:51 PM)30.23 "Hg (Apr 7, 10:51 PM)
Low34 °F (Apr 16, 1:00 AM)17% (Apr 6, 4:51 PM)29.40 "Hg (Apr 8, 12:51 PM)
Average53 °F60%29.97 "Hg
* Reported Apr 1 3:51 AM — Apr 16 3:51 AM, Jersey City, Weather by CustomWeather, © 2014

Note: Actual official high and low records may vary slightly from our data, if they occured in-between our weather recording intervals... More about our weather records

Advertising

Historic Weather Conditions — Data for Previous 24 hours

 ConditionsComfort  
Time TempWeatherWind HumidityBarometerVisibility
3:51 AM
Apr 16
34 °FOvercast.23 mph64%30.06 "Hg10 mi
2:51 AM35 °FMostly cloudy.21 mph67%29.98 "Hg10 mi
1:51 AM36 °FMostly cloudy.16 mph70%29.96 "Hg10 mi
1:00 AM34 °FSleet. Fog.12 mph87%29.94 "Hg4 mi
11:51 PM
Apr 15
34 °FLight rain. Fog.18 mph92%29.92 "Hg1 mi
11:04 PM36 °FLight rain. Fog.14 mph93%29.90 "Hg3 mi
10:51 PM36 °FSleet. Fog.22 mph89%29.89 "Hg4 mi
9:51 PM39 °FSleet. Fog.18 mph86%29.84 "Hg5 mi
8:51 PM41 °FLight rain. Mostly cloudy.17 mph82%29.79 "Hg5 mi
6:51 PM48 °FLight rain. Cloudy.17 mph83%29.68 "Hg6 mi
6:02 PM52 °FLight rain. Fog.21 mph82%29.65 "Hg2 mi
6:00 PM52 °FLight rain. Mostly cloudy.18 mph82%29.65 "Hg3 mi
4:51 PM66 °FLight rain. Mostly cloudy.15 mph78%29.57 "Hg10 mi
3:51 PM66 °FMostly cloudy.8 mph81%29.53 "Hg10 mi
2:51 PM66 °FLight rain. Mostly cloudy.15 mph87%29.52 "Hg9 mi
1:51 PM66 °FLight rain. Mostly cloudy.21 mph90%29.56 "Hg9 mi
12:51 PM65 °FLight rain. Low clouds.17 mph94%29.57 "Hg7 mi
11:51 AM64 °FLight rain. Fog.18 mph94%29.62 "Hg2 mi
10:51 AM64 °FLight rain. Fog.20 mph90%29.64 "Hg3 mi
9:51 AM64 °FLight rain. Low clouds.16 mph90%29.67 "Hg9 mi
8:57 AM64 °FLight rain. Overcast.20 mph88%29.70 "Hg10 mi
7:51 AM64 °FLow clouds.17 mph90%29.72 "Hg9 mi
6:51 AM63 °FLow clouds.15 mph93%29.73 "Hg7 mi
6:00 AM63 °FLight rain. Overcast.10 mph94%29.75 "Hg7 mi
4:51 AM63 °FLight rain. Mostly cloudy.7 mph90%29.78 "Hg7 mi
Weather by CustomWeather, © 2014

See weather overview